Location: Cicognara
(44.9500°N, 10.4667°E)
Time: 15:11:56
(UTC+00:00)

IGS 5A - Pass Details

Date: 20 June 2021
Orbit: 583 x 587 km, 97.6° (Epoch: 17 July)

Event Time Altitude Azimuth Distance (km) Brightness Sun altitude
Exits shadow 20:02:27 - 173° (S) 2,372 6.1 -8.2°
Reaches altitude 10° 20:03:35 10° 175° (S) 1,907 5.6 -8.3°
Maximum altitude 20:07:42 69° 258° (WSW) 634 3.7 -8.8°
Drops below altitude 10° 20:11:52 10° 343° (NNW) 1,923 7.2 -9.3°
Sets 20:14:03 0° 346° (NNW) 2,829 8.2 -9.6°
